Weather History for Crossville, TN

Change the Weather History Date:

Tuesday, January 22, 2013

  Actual Average Record
Temperature  
Mean Temperature 21 °F 36 °F  
Max Temperature 28 °F 45 °F 68 °F (1999)
Min Temperature 14 °F 27 °F -6 °F (1961)
Degree Days  
Heating Degree Days 44    
Month to date heating degree days 548  
Since 1 July heating degree days 2160  
Cooling Degree Days 0    
Month to date cooling degree days 0  
Year to date cooling degree days 0  
Moisture  
Dew Point -1 °F    
Average Humidity 42    
Maximum Humidity 59    
Minimum Humidity 25    
Precipitation  
Precipitation 0.00 in 0.16 in 2.15 in (1971)
Month to date precipitation 4.33 3.40  
Year to date precipitation 4.33 3.40  
Sea Level Pressure  
Sea Level Pressure 30.32 in    
Wind  
Wind Speed 7 mph (NW)    
Max Wind Speed 13 mph    
Max Gust Speed 18 mph    
Visibility 10 miles    
Events      
T = Trace of Precipitation, MM = Missing Value Source: NWS Daily Summary

Daily Weather History Graph

Daily Weather History Graph

Search for Another Location

Airport:

Trip Planner

Search our weather history database for the weather conditions in past years. The results will help you decide how hot, cold, wet, or windy it might be!

Date:

Astronomy

Jan. 22, 2013 Rise Set
Actual Time 6:47 AM CST 4:57 PM CST
Civil Twilight 6:19 AM CST 5:24 PM CST
Nautical Twilight 5:48 AM CST 5:55 PM CST
Astronomical Twilight 5:18 AM CST 6:26 PM CST
Moon 1:20 PM CST (1/22) 3:06 AM CST (1/22)
Length of Visible Light 11h 04m
Length of Day
10h 10m
Waxing Gibbous, 83% of the Moon is Illuminated
Jan 22
Waxing Gibbous
Jan 26
Full
Feb 3
Last Quarter
Feb 10
New
Feb 17
First Quarter

Hourly Weather History & Observations

Time (CST) Temp. Windchill Dew Point Humidity Pressure Visibility Wind Dir Wind Speed Gust Speed Precip Events Conditions
12:53 AM 19.9 °F 11.1 °F 6.1 °F 55% 30.23 in 10.0 mi NW 6.9 mph - N/A   Mostly Cloudy
1:53 AM 19.0 °F 9.0 °F 5.0 °F 54% 30.25 in 10.0 mi NNW 8.1 mph - N/A   Overcast
2:53 AM 19.0 °F 9.0 °F 3.0 °F 50% 30.25 in 10.0 mi NNW 8.1 mph - N/A   Mostly Cloudy
3:53 AM 17.1 °F 11.7 °F 3.0 °F 54% 30.26 in 10.0 mi NNW 3.5 mph - N/A   Clear
4:53 AM 16.0 °F 7.4 °F 3.9 °F 59% 30.28 in 10.0 mi NW 5.8 mph - N/A   Partly Cloudy
5:53 AM 15.1 °F 7.7 °F 3.9 °F 61% 30.31 in 10.0 mi WNW 4.6 mph - N/A   Clear
6:53 AM 14.0 °F 8.2 °F 1.0 °F 56% 30.32 in 10.0 mi NW 3.5 mph - N/A   Clear
7:53 AM 17.1 °F 5.8 °F 1.0 °F 50% 30.33 in 10.0 mi NNW 9.2 mph - N/A   Clear
8:53 AM 18.0 °F 6.1 °F -2.9 °F 40% 30.37 in 10.0 mi NNW 10.4 mph - N/A   Clear
9:53 AM 19.9 °F 8.6 °F -5.1 °F 33% 30.38 in 10.0 mi North 10.4 mph - N/A   Clear
10:53 AM 23.0 °F 14.7 °F -5.1 °F 29% 30.38 in 10.0 mi NNW 6.9 mph - N/A   Clear
11:53 AM 27.0 °F 19.5 °F -2.9 °F 27% 30.33 in 10.0 mi NNW 6.9 mph - N/A   Clear
12:53 PM 27.0 °F 18.7 °F -5.1 °F 25% 30.31 in 10.0 mi NW 8.1 mph - N/A   Clear
1:53 PM 27.0 °F 18.0 °F -6.0 °F 24% 30.32 in 10.0 mi West 9.2 mph - N/A   Partly Cloudy
2:53 PM 27.0 °F 18.0 °F -4.0 °F 26% 30.32 in 10.0 mi WNW 9.2 mph - N/A   Overcast
3:53 PM 26.1 °F 17.6 °F -2.0 °F 30% 30.32 in 10.0 mi WNW 8.1 mph - N/A   Mostly Cloudy
4:53 PM 24.1 °F 15.2 °F -2.0 °F 32% 30.34 in 10.0 mi West 8.1 mph - N/A   Overcast
5:53 PM 23.0 °F 14.7 °F -2.9 °F 32% 30.35 in 10.0 mi WNW 6.9 mph - N/A   Mostly Cloudy
6:53 PM 23.0 °F 14.7 °F -4.0 °F 31% 30.35 in 10.0 mi WNW 6.9 mph - N/A   Overcast
7:53 PM 23.0 °F 17.0 °F -2.9 °F 32% 30.35 in 10.0 mi West 4.6 mph - N/A   Overcast
8:53 PM 23.0 °F 17.0 °F -2.9 °F 32% 30.35 in 10.0 mi West 4.6 mph - N/A   Overcast
9:53 PM 23.0 °F 18.4 °F -2.0 °F 34% 30.35 in 10.0 mi WNW 3.5 mph - N/A   Overcast
10:53 PM 23.0 °F 17.0 °F -0.9 °F 35% 30.35 in 10.0 mi West 4.6 mph - N/A   Overcast
11:53 PM 23.0 °F - 1.0 °F 39% 30.35 in 10.0 mi Calm Calm - N/A   Overcast